FW1654 Weather Reports


Display with metric or nautical units.
time (UTC)temp
F
wind
direction
speed
MPH
gust
MPH
rain 1hr
in
rain 24hr
in
rain mn
in
humidity
%
barometer
mb
20240625073730 66 12 2.0 4.0 0.00 0.00 0.00 80 1019.1
20240625073223 66 12 2.0 4.0 0.00 0.00 0.00 79 1019.0
20240625072713 67 12 2.0 4.0 0.00 0.00 0.00 79 1019.0
20240625072209 67 12 2.0 4.0 0.00 0.00 0.00 79 1019.0
20240625071711 67 25 3.0 5.0 0.00 0.00 0.00 79 1019.0
20240625071208 66 25 3.0 5.0 0.00 0.00 0.00 79 1019.0
20240625070921 66 6 2.0 4.0 0.00 0.00 0.00 79 1019.0
20240625070205 67 7 2.0 3.0 0.00 0.00 0.00 79 1018.9
20240625065704 67 7 2.0 3.0 0.00 0.00 0.00 79 1018.9
20240625065204 67 7 2.0 4.0 0.00 0.00 0.00 78 1018.9
20240625064705 67 6 2.0 4.0 0.00 0.00 0.00 78 1018.9
20240625064204 67 6 2.0 4.0 0.00 0.00 0.00 78 1018.9
20240625063705 67 6 2.0 4.0 0.00 0.00 0.00 78 1018.9
20240625063207 67 6 2.0 4.0 0.00 0.00 0.00 78 1018.9
20240625062705 67 6 2.0 4.0 0.00 0.00 0.00 78 1018.9
20240625062419 67 12 2.0 4.0 0.00 0.00 0.00 78 1018.7
20240625061910 67 12 2.0 4.0 0.00 0.00 0.00 77 1018.7
20240625061140 67 12 2.0 4.0 0.00 0.00 0.00 77 1018.7
20240625060639 68 6 0.0 2.0 0.00 0.00 0.00 76 1018.8
20240625060608 68 6 0.0 2.0 0.00 0.00 0.00 76 1018.8
20240625055607 68 6 0.0 2.0 0.00 0.00 0.00 76 1018.8
20240625055102 68 6 0.0 2.0 0.00 0.00 0.00 76 1018.9
20240625054557 68 6 0.0 2.0 0.00 0.00 0.00 76 1018.9
20240625054030 68 6 0.0 3.0 0.00 0.00 0.00 76 1018.9
20240625053525 68 6 1.0 3.0 0.00 0.00 0.00 75 1018.9
20240625052947 69 6 1.0 3.0 0.00 0.00 0.00 75 1018.9
20240625052700 69 6 2.0 4.0 0.00 0.00 0.00 73 1018.9
20240625052401 69 6 2.0 4.0 0.00 0.00 0.00 73 1018.7
20240625051425 69 6 2.0 3.0 0.00 0.00 0.00 73 1018.7
20240625050922 69 336 2.0 3.0 0.00 0.00 0.00 73 1018.7
20240625050420 69 336 1.0 3.0 0.00 0.00 0.00 72 1018.7
20240625045920 70 336 2.0 3.0 0.00 0.00 0.00 72 1018.7
20240625045851 70 336 2.0 2.0 0.00 0.00 0.00 71 1018.7
20240625044859 71 336 2.0 2.0 0.00 0.00 0.00 69 1018.8
20240625044355 71 336 2.0 4.0 0.00 0.00 0.00 68 1018.8
20240625043840 71 336 2.0 4.0 0.00 0.00 0.00 68 1018.8
20240625043337 71 336 2.0 4.0 0.00 0.00 0.00 67 1018.8
20240625042837 71 336 0.0 3.0 0.00 0.00 0.00 67 1018.8
20240625042334 71 336 0.0 3.0 0.00 0.00 0.00 67 1018.8
20240625041831 71 336 0.0 2.0 0.00 0.00 0.00 67 1018.6
20240625041326 71 336 0.0 0.0 0.00 0.00 0.00 67 1018.6
20240625040812 72 336 1.0 0.0 0.00 0.00 0.00 66 1018.6
20240625040249 72 336 1.0 2.0 0.00 0.00 0.00 66 1018.6
20240625035739 72 336 2.0 3.0 0.00 0.00 0.00 65 1018.6
20240625035242 72 336 2.0 3.0 0.00 0.00 0.00 65 1018.6
20240625034739 72 336 0.0 3.0 0.00 0.00 0.00 65 1018.5
20240625034237 72 336 0.0 2.0 0.00 0.00 0.00 64 1018.5
20240625033737 73 336 2.0 2.0 0.00 0.00 0.00 64 1018.5
20240625033500 73 336 2.0 3.0 0.00 0.00 0.00 64 1018.5
20240625032715 73 336 2.0 4.0 0.00 0.00 0.00 64 1018.5
20240625032215 73 336 2.0 4.0 0.00 0.00 0.00 64 1018.5
20240625031929 72 334 0.0 3.0 0.00 0.00 0.00 64 1018.2
20240625031201 73 334 0.0 1.0 0.00 0.00 0.00 63 1018.2
20240625030700 73 334 0.0 2.0 0.00 0.00 0.00 63 1018.2
20240625030158 73 334 0.0 2.0 0.00 0.00 0.00 62 1018.0
20240625025654 73 334 0.0 0.0 0.00 0.00 0.00 62 1018.0
20240625025125 73 334 0.0 0.0 0.00 0.00 0.00 62 1018.0
20240625024542 73 334 0.0 2.0 0.00 0.00 0.00 61 1018.0
20240625024031 74 334 0.0 2.0 0.00 0.00 0.00 60 1018.0
20240625023535 74 334 0.0 2.0 0.00 0.00 0.00 60 1017.8
20240625023029 74 334 0.0 2.0 0.00 0.00 0.00 60 1017.8
20240625022459 74 334 0.0 2.0 0.00 0.00 0.00 58 1017.8
20240625021958 74 334 0.0 2.0 0.00 0.00 0.00 58 1017.6
20240625021711 75 334 0.0 2.0 0.00 0.00 0.00 57 1017.6
20240625020950 75 334 0.0 2.0 0.00 0.00 0.00 57 1017.6
20240625020453 75 334 0.0 2.0 0.00 0.00 0.00 57 1017.5
20240625015950 75 334 0.0 2.0 0.00 0.00 0.00 57 1017.5
20240625015429 75 334 0.0 2.0 0.00 0.00 0.00 56 1017.5
20240625014930 76 334 0.0 2.0 0.00 0.00 0.00 56 1017.3
20240625014427 76 334 0.0 2.0 0.00 0.00 0.00 56 1017.3
20240625013921 76 334 1.0 2.0 0.00 0.00 0.00 55 1017.3
20240625013421 76 334 1.0 2.0 0.00 0.00 0.00 54 1017.3
20240625012907 77 334 1.0 2.0 0.00 0.00 0.00 54 1017.3
20240625012352 78 334 1.0 0.0 0.00 0.00 0.00 52 1017.3
20240625011853 78 334 1.0 1.0 0.00 0.00 0.00 52 1017.2
20240625011312 78 334 1.0 2.0 0.00 0.00 0.00 52 1017.2
20240625010737 78 334 1.0 4.0 0.00 0.00 0.00 52 1017.2
20240625010237 78 334 1.0 4.0 0.00 0.00 0.00 52 1017.1
20240625005726 79 250 2.0 3.0 0.00 0.00 0.00 51 1017.1
20240625005227 79 259 2.0 5.0 0.00 0.00 0.00 51 1017.1
20240625004934 79 274 2.0 5.0 0.00 0.00 0.00 50 1016.9
20240625004204 80 214 2.0 4.0 0.00 0.00 0.00 50 1016.9
20240625003700 80 324 2.0 3.0 0.00 0.00 0.00 50 1016.9
20240625003154 81 156 2.0 2.0 0.00 0.00 0.00 48 1016.9
20240625002645 81 156 2.0 4.0 0.00 0.00 0.00 48 1016.9
20240625002406 81 156 2.0 5.0 0.00 0.00 0.00 48 1016.7
20240625001624 81 28 2.0 6.0 0.00 0.00 0.00 48 1016.7
20240625001125 81 331 2.0 5.0 0.00 0.00 0.00 47 1016.7
20240625000624 82 283 2.0 4.0 0.00 0.00 0.00 46 1016.6
20240625000124 82 267 2.0 7.0 0.00 0.00 0.00 46 1016.6
20240624235607 83 287 2.0 8.0 0.00 0.00 0.00 45 1016.6
20240624235107 83 183 2.0 8.0 0.00 0.00 0.00 44 1016.6
20240624234604 84 272 2.0 6.0 0.00 0.00 0.00 44 1016.6
20240624234335 84 328 2.0 6.0 0.00 0.00 0.00 43 1016.6
20240624233559 85 190 2.0 6.0 0.00 0.00 0.00 44 1016.5
20240624233059 85 17 2.0 6.0 0.00 0.00 0.00 42 1016.5
20240624232557 86 353 3.0 6.0 0.00 0.00 0.00 42 1016.5
20240624232544 86 314 3.0 6.0 0.00 0.00 0.00 41 1016.4
20240624231554 87 236 2.0 5.0 0.00 0.00 0.00 41 1016.4
20240624231311 87 7 2.0 5.0 0.00 0.00 0.00 40 1016.4
20240624230558 87 54 3.0 5.0 0.00 0.00 0.00 41 1016.4
20240624230311 86 31 3.0 5.0 0.00 0.00 0.00 41 1016.4
20240624225551 86 309 3.0 5.0 0.00 0.00 0.00 41 1016.4
20240624225049 86 261 3.0 7.0 0.00 0.00 0.00 40 1016.3
20240624224810 86 4 3.0 7.0 0.00 0.00 0.00 40 1016.3
20240624224049 86 273 3.0 8.0 0.00 0.00 0.00 39 1016.3
20240624223550 86 269 3.0 9.0 0.00 0.00 0.00 41 1016.2
20240624223049 86 17 3.0 9.0 0.00 0.00 0.00 39 1016.2
20240624222549 87 11 2.0 6.0 0.00 0.00 0.00 39 1016.2
20240624222050 86 279 2.0 5.0 0.00 0.00 0.00 39 1016.2
20240624221549 86 224 4.0 5.0 0.00 0.00 0.00 41 1016.2
20240624221315 86 6 4.0 6.0 0.00 0.00 0.00 42 1016.2
20240624220552 85 9 2.0 6.0 0.00 0.00 0.00 43 1016.2
20240624220044 85 35 2.0 6.0 0.00 0.00 0.00 45 1016.2
20240624215544 85 167 3.0 6.0 0.00 0.00 0.00 48 1016.2
20240624215044 85 279 3.0 5.0 0.00 0.00 0.00 48 1016.3
20240624214543 85 9 3.0 5.0 0.00 0.00 0.00 44 1016.3
20240624214029 86 237 3.0 8.0 0.00 0.00 0.00 44 1016.3
20240624213531 86 307 3.0 8.0 0.00 0.00 0.00 42 1016.2
20240624213029 86 354 3.0 7.0 0.00 0.00 0.00 43 1016.2
20240624212531 86 12 2.0 6.0 0.00 0.00 0.00 43 1016.2
20240624212027 85 220 2.0 6.0 0.00 0.00 0.00 43 1016.4
20240624211529 85 11 2.0 6.0 0.00 0.00 0.00 44 1016.4
20240624211245 86 21 2.0 7.0 0.00 0.00 0.00 42 1016.4
20240624210517 87 7 3.0 7.0 0.00 0.00 0.00 41 1016.3
20240624210017 87 326 3.0 6.0 0.00 0.00 0.00 41 1016.3
20240624205504 88 335 4.0 9.0 0.00 0.00 0.00 39 1016.3
20240624205006 88 301 4.0 9.0 0.00 0.00 0.00 41 1016.3
20240624204456 88 212 4.0 7.0 0.00 0.00 0.00 42 1016.3
20240624203956 88 333 4.0 7.0 0.00 0.00 0.00 39 1016.3
20240624203715 88 284 4.0 2.0 0.00 0.00 0.00 40 1016.2
20240624203428 88 284 4.0 2.0 0.00 0.00 0.00 40 1016.2
20240624202420 88 284 4.0 5.0 0.00 0.00 0.00 40 1016.2
20240624201920 88 284 4.0 11.0 0.00 0.00 0.00 40 1016.2
20240624201352 88 301 4.0 11.0 0.00 0.00 0.00 41 1016.2
20240624200849 88 187 3.0 10.0 0.00 0.00 0.00 42 1016.2
20240624200349 87 257 3.0 12.0 0.00 0.00 0.00 42 1016.3
20240624195849 87 202 2.0 12.0 0.00 0.00 0.00 41 1016.3
20240624195349 86 257 2.0 6.0 0.00 0.00 0.00 41 1016.3
20240624194849 85 248 3.0 7.0 0.00 0.00 0.00 41 1016.4
20240624194349 85 293 3.0 7.0 0.00 0.00 0.00 44 1016.4
20240624193849 85 292 4.0 5.0 0.00 0.00 0.00 48 1016.4
20240624193349 85 115 4.0 6.0 0.00 0.00 0.00 43 1016.5
20240624193112 86 4 4.0 7.0 0.00 0.00 0.00 42 1016.5
20240624192349 87 332 4.0 10.0 0.00 0.00 0.00 42 1016.5
20240624192114 87 277 3.0 10.0 0.00 0.00 0.00 46 1016.5
20240624191349 86 192 3.0 7.0 0.00 0.00 0.00 44 1016.5
20240624190847 86 216 2.0 6.0 0.00 0.00 0.00 46 1016.5
20240624190347 86 8 2.0 6.0 0.00 0.00 0.00 40 1016.6
20240624185836 86 204 3.0 6.0 0.00 0.00 0.00 44 1016.6
20240624185334 86 20 3.0 5.0 0.00 0.00 0.00 43 1016.6
20240624184829 86 212 4.0 5.0 0.00 0.00 0.00 42 1016.5
20240624184328 86 168 4.0 8.0 0.00 0.00 0.00 42 1016.5
20240624183827 85 6 4.0 8.0 0.00 0.00 0.00 42 1016.5
20240624183324 85 218 4.0 8.0 0.00 0.00 0.00 46 1016.6
20240624182821 85 336 3.0 8.0 0.00 0.00 0.00 46 1016.6
20240624182318 86 15 3.0 10.0 0.00 0.00 0.00 44 1016.6
20240624181819 86 263 3.0 10.0 0.00 0.00 0.00 43 1016.7
20240624181318 86 20 3.0 10.0 0.00 0.00 0.00 42 1016.7
20240624180819 85 214 3.0 8.0 0.00 0.00 0.00 49 1016.7
20240624180319 85 303 3.0 7.0 0.00 0.00 0.00 49 1016.9
20240624175820 84 274 3.0 6.0 0.00 0.00 0.00 45 1016.9
20240624175532 84 278 3.0 9.0 0.00 0.00 0.00 46 1016.9
20240624174811 84 24 4.0 9.0 0.00 0.00 0.00 45 1017.0
20240624174311 84 17 4.0 9.0 0.00 0.00 0.00 48 1017.0
20240624173811 84 27 4.0 9.0 0.00 0.00 0.00 49 1017.0
20240624173541 84 204 4.0 8.0 0.00 0.00 0.00 47 1017.0
20240624172812 84 276 3.0 8.0 0.00 0.00 0.00 49 1017.0
20240624172806 84 350 3.0 7.0 0.00 0.00 0.00 49 1017.0
20240624172035 83 327 3.0 6.0 0.00 0.00 0.00 48 1017.0
20240624171310 83 334 3.0 6.0 0.00 0.00 0.00 46 1017.0
20240624170806 83 295 4.0 8.0 0.00 0.00 0.00 51 1017.0
20240624170309 82 13 4.0 9.0 0.00 0.00 0.00 49 1017.0
20240624165804 82 298 3.0 10.0 0.00 0.00 0.00 50 1017.0
20240624165307 82 13 3.0 10.0 0.00 0.00 0.00 49 1017.0
20240624165028 82 21 3.0 6.0 0.00 0.00 0.00 50 1017.0
20240624164304 82 287 3.0 7.0 0.00 0.00 0.00 52 1017.0
20240624163804 82 4 4.0 8.0 0.00 0.00 0.00 51 1017.0
20240624163301 82 197 4.0 8.0 0.00 0.00 0.00 52 1016.9
20240624162800 82 2 4.0 9.0 0.00 0.00 0.00 51 1016.9
20240624162259 82 10 4.0 9.0 0.00 0.00 0.00 50 1016.9
20240624161758 82 14 3.0 8.0 0.00 0.00 0.00 50 1017.0
20240624161259 82 311 3.0 11.0 0.00 0.00 0.00 54 1017.0
20240624160758 82 210 4.0 11.0 0.00 0.00 0.00 52 1017.0
20240624160258 82 37 4.0 6.0 0.00 0.00 0.00 54 1016.9
20240624155759 81 335 4.0 10.0 0.00 0.00 0.00 53 1016.9
20240624155259 81 227 4.0 10.0 0.00 0.00 0.00 55 1016.9
20240624154759 81 341 4.0 9.0 0.00 0.00 0.00 55 1016.8
20240624154257 80 188 4.0 8.0 0.00 0.00 0.00 55 1016.8
20240624153757 80 332 4.0 6.0 0.00 0.00 0.00 58 1016.8
20240624153518 80 203 4.0 3.0 0.00 0.00 0.00 56 1016.8
20240624152738 80 203 4.0 8.0 0.00 0.00 0.00 56 1016.8
20240624152158 80 203 4.0 8.0 0.00 0.00 0.00 56 1016.8
20240624151659 80 9 4.0 8.0 0.00 0.00 0.00 59 1016.6
20240624151159 80 193 4.0 7.0 0.00 0.00 0.00 61 1016.6
20240624150659 80 180 4.0 10.0 0.00 0.00 0.00 61 1016.6
20240624150159 80 194 4.0 10.0 0.00 0.00 0.00 61 1016.5
20240624145658 80 326 3.0 10.0 0.00 0.00 0.00 61 1016.5
20240624145159 79 253 3.0 10.0 0.00 0.00 0.00 63 1016.5
20240624144659 79 237 4.0 7.0 0.00 0.00 0.00 62 1016.5
20240624144649 79 295 4.0 9.0 0.00 0.00 0.00 64 1016.5
20240624143659 79 288 3.0 9.0 0.00 0.00 0.00 60 1016.5
20240624143418 79 335 3.0 8.0 0.00 0.00 0.00 62 1016.5
20240624142700 78 328 3.0 9.0 0.00 0.00 0.00 62 1016.5
20240624142423 78 7 3.0 9.0 0.00 0.00 0.00 61 1016.5
20240624141658 78 0 3.0 8.0 0.00 0.00 0.00 63 1016.5
20240624141157 78 261 3.0 8.0 0.00 0.00 0.00 64 1016.5
20240624140656 78 0 4.0 7.0 0.00 0.00 0.00 66 1016.6
20240624140156 78 2 4.0 7.0 0.00 0.00 0.00 70 1016.6
20240624135656 77 307 3.0 7.0 0.00 0.00 0.00 70 1016.6
20240624135153 77 284 3.0 8.0 0.00 0.00 0.00 72 1016.4
20240624134654 77 292 3.0 8.0 0.00 0.00 0.00 71 1016.4
20240624134631 77 291 3.0 7.0 0.00 0.00 0.00 73 1016.4
20240624133653 77 272 3.0 9.0 0.00 0.00 0.00 76 1016.4
20240624133144 77 242 3.0 9.0 0.00 0.00 0.00 77 1016.4
20240624132642 76 3 3.0 7.0 0.00 0.00 0.00 78 1016.4
20240624132625 76 341 3.0 7.0 0.00 0.00 0.00 78 1016.3
20240624131640 76 262 2.0 7.0 0.00 0.00 0.00 80 1016.3
20240624131140 76 289 2.0 6.0 0.00 0.00 0.00 81 1016.3
20240624130639 75 268 3.0 5.0 0.00 0.00 0.00 84 1016.2
20240624130136 75 2 3.0 6.0 0.00 0.00 0.00 85 1016.2
20240624125636 75 181 3.0 6.0 0.00 0.00 0.00 86 1016.2
20240624125129 74 260 3.0 8.0 0.00 0.00 0.00 87 1016.1
20240624124629 74 269 3.0 8.0 0.00 0.00 0.00 90 1016.1
20240624124126 73 202 3.0 8.0 0.00 0.00 0.00 92 1016.1
20240624123625 73 258 3.0 8.0 0.00 0.00 0.00 96 1015.9
20240624123121 73 204 3.0 6.0 0.00 0.00 0.00 96 1015.9
20240624122844 73 205 3.0 6.0 0.00 0.00 0.00 97 1015.9
20240624122119 72 204 3.0 5.0 0.00 0.00 0.00 97 1015.7
20240624121619 72 189 3.0 6.0 0.00 0.00 0.00 98 1015.7
20240624121119 72 226 3.0 6.0 0.00 0.00 0.00 98 1015.7
20240624120604 72 201 4.0 6.0 0.00 0.00 0.00 98 1015.6
20240624120104 72 189 4.0 6.0 0.00 0.00 0.00 98 1015.6
20240624115603 72 213 3.0 5.0 0.00 0.00 0.00 99 1015.6
20240624115104 72 242 3.0 5.0 0.00 0.00 0.00 99 1015.4
20240624114604 72 190 2.0 5.0 0.00 0.00 0.00 99 1015.4
20240624114104 71 212 2.0 4.0 0.00 0.00 0.00 99 1015.4
20240624113822 71 206 2.0 4.0 0.00 0.00 0.00 99 1015.3
20240624113319 71 211 2.0 5.0 0.00 0.00 0.00 99 1015.3
20240624112554 71 196 2.0 5.0 0.00 0.00 0.00 99 1015.3
20240624112051 71 220 2.0 5.0 0.00 0.00 0.00 98 1015.3
20240624111551 71 246 2.0 3.0 0.00 0.00 0.00 98 1015.3
20240624111051 71 252 2.0 3.0 0.00 0.00 0.00 98 1015.3
20240624110551 71 257 2.0 3.0 0.00 0.00 0.00 98 1015.3
20240624110051 71 236 2.0 3.0 0.00 0.00 0.00 98 1015.3
20240624105549 71 236 2.0 3.0 0.00 0.00 0.00 98 1015.3
20240624105049 71 236 2.0 3.0 0.00 0.00 0.00 98 1015.1
20240624104551 71 237 1.0 3.0 0.00 0.00 0.00 98 1015.1
20240624104049 71 234 1.0 3.0 0.00 0.00 0.00 97 1015.1
20240624103547 71 234 1.0 3.0 0.00 0.00 0.00 97 1014.9
20240624103048 71 234 1.0 3.0 0.00 0.00 0.00 97 1014.9
20240624102542 71 234 1.0 3.0 0.00 0.00 0.00 97 1014.9
20240624102041 71 234 1.0 3.0 0.00 0.00 0.00 97 1014.7
20240624101538 71 234 0.0 2.0 0.00 0.00 0.00 96 1014.7
20240624101036 71 233 0.0 2.0 0.00 0.00 0.00 96 1014.7
20240624100513 71 233 1.0 2.0 0.00 0.00 0.00 96 1014.7
20240624100006 71 233 1.0 3.0 0.00 0.00 0.00 96 1014.7
20240624095510 72 233 1.0 3.0 0.00 0.00 0.00 96 1014.7
20240624095007 72 233 1.0 2.0 0.00 0.00 0.00 96 1014.6
20240624094729 72 233 2.0 3.0 0.00 0.00 0.00 96 1014.6
20240624094003 72 233 2.0 4.0 0.00 0.00 0.00 96 1014.6
20240624093504 72 217 2.0 5.0 0.00 0.00 0.00 96 1014.5
20240624093001 72 208 2.0 5.0 0.00 0.00 0.00 95 1014.5
20240624092501 72 210 2.0 5.0 0.00 0.00 0.00 95 1014.5
20240624091958 72 217 2.0 5.0 0.00 0.00 0.00 95 1014.4
20240624091458 72 210 3.0 5.0 0.00 0.00 0.00 95 1014.4
20240624090959 72 221 3.0 5.0 0.00 0.00 0.00 94 1014.4
20240624090710 73 236 3.0 5.0 0.00 0.00 0.00 94 1014.3
20240624085953 73 258 3.0 6.0 0.00 0.00 0.00 94 1014.3
20240624085453 73 236 2.0 6.0 0.00 0.00 0.00 94 1014.3
20240624085221 73 210 2.0 5.0 0.00 0.00 0.00 93 1014.2
20240624084454 73 224 3.0 5.0 0.00 0.00 0.00 93 1014.2
20240624083951 73 266 3.0 5.0 0.00 0.00 0.00 93 1014.2
20240624083448 73 275 4.0 5.0 0.00 0.00 0.00 93 1014.2
20240624082950 73 275 4.0 5.0 0.00 0.00 0.00 93 1014.2
20240624082436 73 275 4.0 7.0 0.00 0.00 0.00 93 1014.2
20240624081936 73 200 4.0 8.0 0.00 0.00 0.00 93 1014.1
20240624081436 73 263 5.0 8.0 0.00 0.00 0.00 92 1014.1
20240624080936 73 213 5.0 9.0 0.00 0.00 0.00 92 1014.1
20240624080436 73 264 5.0 10.0 0.00 0.00 0.00 92 1014.1
20240624075936 73 273 5.0 10.0 0.00 0.00 0.00 91 1014.1
20240624074935 74 233 5.0 10.0 0.00 0.00 0.00 91 1014.1
20240624074655 74 248 4.0 10.0 0.00 0.00 0.00 90 1014.1
20240624074423 74 206 4.0 7.0 0.00 0.00 0.00 90 1014.1